Tracking 19634 objects as of 23-May-2019
HD Live streaming from Space Station
objects crossing your sky now

METEOR 2-17 DEB

Track METEOR 2-17 DEB now!
10-day predictions


NORAD ID: 31398
Int'l Code: 1988-005T
Perigee: 903.4 km
Apogee: 950.1 km
Inclination: 82.5 °
Period: 103.4 minutes
Semi major axis: 7297 km
RCS: 0.0054 m2 (small)
Launch date: January 30, 1988
Source: Commonwealth of Independent States (former USSR) (CIS)
Launch site: PLESETSK MISSILE AND SPACE COMPLEX (PKMTR)

Note: This is SATELLITE DEBRIS
aabbcc
Your satellite tracking list
Your tracking list is empty




NASA's NSSDC Master Catalog

Two Line Element Set (TLE):
1 31398U 88005T   19135.93318041  .00000767  00000-0  58063-3 0  9998
2 31398  82.5289 211.3611 0031991  93.9980 266.4843 13.92572412644267
Source of the keplerian elements: AFSPC